Medicine Hat, Alberta

1:56 AM MDT on April 22, 2018 (GMT -0600)
Medicine Hat

Weather History for CYXH - August, 2013

Change the Weather History Date:

Thursday, August 29, 2013

  Actual Average Record
Temperature  
Mean Temperature 52 °F -  
Max Temperature 93 °F 69 °F 95 °F (2005)
Min Temperature 12 °F 42 °F 12 °F (2013)
Degree Days  
Heating Degree Days 12    
Growing Degree Days 2 (Base 50)    
Moisture  
Dew Point 48 °F    
Average Humidity 63    
Maximum Humidity 94    
Minimum Humidity 15    
Precipitation  
Precipitation 0.00 in 0.05 in - ()
Sea Level Pressure  
Sea Level Pressure 29.93 in    
Wind  
Wind Speed 7 mph ()    
Max Wind Speed 31 mph    
Max Gust Speed 40 mph    
Visibility 9.3 miles    
Events Rain , Thunderstorm    
Averages and records for this station are not official NWS values.
T = Trace of Precipitation, MM = Missing Value Source: Averaged Metar Reports

Daily Weather History Graph

Daily Weather History Graph

Search for Another Location

Airport or City:

Astronomy

Aug. 29, 2013 Rise Set
Actual Time 6:33 AM MDT 8:12 PM MDT
Civil Twilight 5:59 AM MDT 8:46 PM MDT
Nautical Twilight 5:18 AM MDT 9:27 PM MDT
Astronomical Twilight 4:32 AM MDT 10:13 PM MDT
Moon 12:10 AM MDT (8/29) 4:02 PM MDT (8/29)
Length of Visible Light 14h 46m
Length of Day
13h 38m
Last Quarter, 37% of the Moon is Illuminated
Aug 29
Last Quarter
Sep 5
New
Sep 12
First Quarter
Sep 19
Full
Sep 26
Last Quarter

Hourly Weather History & Observations

Time (MDT) Temp. Dew Point Humidity Pressure Visibility Wind Dir Wind Speed Gust Speed Precip Events Conditions
12:00 AM 16 °F 15 °F 91% 29.78 in - West 4.6 mph - -  
12:00 AM 59.0 °F 50.0 °F 72% 29.91 in 9.0 mi SW 6.9 mph - N/A   Clear
1:00 AM 59.0 °F 50.0 °F 72% 29.91 in 9.0 mi SSW 3.5 mph - N/A   Clear
2:00 AM 55.4 °F 50.0 °F 82% 29.91 in 9.0 mi South 3.5 mph - N/A   Clear
3:00 AM 57.2 °F 48.2 °F 72% 29.91 in 9.0 mi SSW 4.6 mph - N/A   Clear
4:00 AM 55.4 °F 48.2 °F 77% 29.91 in 9.0 mi SSW 8.1 mph - N/A   Clear
5:00 AM 59.0 °F 50.0 °F 72% 29.92 in 9.0 mi SW 10.4 mph - N/A   Clear
6:00 AM 15 °F 14 °F 93% 29.78 in - West 2.3 mph - -  
6:00 AM 57.2 °F 50.0 °F 77% 29.94 in 9.0 mi SW 10.4 mph - N/A   Clear
7:00 AM 57.2 °F 50.0 °F 77% 29.95 in 30.0 mi SW 10.4 mph - N/A   Clear
8:00 AM 60.8 °F 51.8 °F 72% 29.97 in 30.0 mi SSW 6.9 mph - N/A   Partly Cloudy
9:00 AM 66.2 °F 53.6 °F 64% 29.99 in 30.0 mi SW 9.2 mph - N/A   Partly Cloudy
10:00 AM 71.6 °F 55.4 °F 57% 29.99 in 30.0 mi SW 9.2 mph - N/A   Partly Cloudy
11:00 AM 77.0 °F 53.6 °F 44% 29.98 in 30.0 mi WSW 6.9 mph - N/A   Partly Cloudy
12:00 PM 18 °F 17 °F 92% 29.78 in - North 5.8 mph - -  
12:00 PM 82.4 °F 51.8 °F 35% 29.98 in 30.0 mi WSW 5.8 mph - N/A   Partly Cloudy
1:00 PM 84.2 °F 48.2 °F 29% 29.96 in 30.0 mi SW 3.5 mph - N/A   Partly Cloudy
2:00 PM 87.8 °F 46.4 °F 24% 29.94 in 30.0 mi NW 4.6 mph - N/A   Scattered Clouds
3:00 PM 91.4 °F 44.6 °F 20% 29.91 in 30.0 mi SSW 3.5 mph - N/A   Scattered Clouds
4:00 PM 91.4 °F 44.6 °F 20% 29.89 in 30.0 mi WSW 4.6 mph - N/A   Mostly Cloudy
5:00 PM 93.2 °F 44.6 °F 19% 29.86 in 30.0 mi SSE 2.3 mph - N/A   Mostly Cloudy
6:00 PM 19 °F 18 °F 94% 29.79 in - NNW 13.8 mph - -  
6:00 PM 93.2 °F 39.2 °F 15% 29.85 in 30.0 mi SSE 6.9 mph - N/A   Overcast
7:00 PM 87.8 °F 42.8 °F 21% 29.85 in 30.0 mi SE 8.1 mph - N/A   Overcast
7:47 PM 86.0 °F 42.8 °F 22% 29.84 in 30.0 mi SE 8.1 mph - N/A Thunderstorm Thunderstorm
8:00 PM 84.2 °F 42.8 °F 23% 29.87 in 15.0 mi SW 8.1 mph - N/A Thunderstorm Thunderstorm
8:05 PM 82.4 °F 48.2 °F 30% 29.90 in 10.0 mi WNW 15.0 mph 25.3 mph N/A Rain , Thunderstorm Light Thunderstorms and Rain
8:43 PM 68.0 °F 59.0 °F 73% 29.98 in 15.0 mi WNW 31.1 mph 40.3 mph N/A   Overcast
9:00 PM 66.2 °F 59.0 °F 78% 30.01 in 15.0 mi West 21.9 mph 36.8 mph N/A   Overcast
9:02 PM 66.2 °F 59.0 °F 78% 30.02 in 15.0 mi West 19.6 mph 33.4 mph N/A Rain Light Rain Showers
9:47 PM 66.2 °F 59.0 °F 78% 30.04 in 5.0 mi Variable 3.5 mph - N/A Rain Rain
10:00 PM 64.4 °F 60.8 °F 88% 30.01 in 5.0 mi East 8.1 mph - N/A Rain Light Rain
10:07 PM 64.4 °F 60.8 °F 88% 30.01 in 6.0 mi ENE 4.6 mph - N/A Rain Light Rain
10:25 PM 64.4 °F 60.8 °F 88% 29.99 in 8.0 mi SE 16.1 mph - N/A Rain Light Rain
10:40 PM 64.4 °F 60.8 °F 88% 29.99 in 5.0 mi SE 10.4 mph 17.3 mph N/A Rain Rain
10:50 PM 64.4 °F 60.8 °F 88% 29.96 in 6.0 mi ESE 9.2 mph - N/A Rain Light Rain
10:59 PM 62.6 °F 60.8 °F 94% 29.94 in 9.0 mi East 10.4 mph - N/A   Overcast
11:00 PM 62.6 °F 60.8 °F 94% 29.93 in 9.0 mi East 10.4 mph - N/A   Overcast